Regional Weather Roundup
Issued by NWS

Home | Current Version | Previous Version | Text Only | Print | Product List | Glossary Off
Versions: 1 2 3 4 5 6 7 8 9 10 11 12 13 14 15 16 17 18 19 20 21 22 23 24 25 26 27 28 29 30 31 32 33 34 35 36 37 38 39 40 41 42 43 44 45 46 47 48 49 50

000
ASUS45 KTFX 202110
RWRMT
MONTANA REGIONAL WEATHER ROUNDUP
NATIONAL WEATHER SERVICE GREAT FALLS MT
300 PM MDT FRI OCT 20 2017

NOTE: "FAIR" INDICATES FEW OR NO CLOUDS BELOW 12000 FEET WITH NO
SIGNIFICANT WEATHER AND/OR OBSTRUCTIONS TO VISIBILITY.

MTZ001>007-043-202200-
WEST OF THE DIVIDE

CITY           SKY/WX    TMP DP  RH WIND       PRES   REMARKS
KALISPELL      CLOUDY    46  37  71 S12       29.54R
MISSOULA       LGT RAIN  41  36  82 N3        29.65R
BUTTE          LGT SNOW  34  31  88 NW15      29.59R FOG     WCI  24
MULLAN PASS    SNOW      29  27  92 VRB5      29.59R VSB 1/4
ANACONDA         N/A     36  30  80 NE8       29.59R WCI  29
DEER LODGE       N/A     36  34  93 N9        29.60R WCI  29
EUREKA           N/A     48  34  57 MISG      29.52R
HAMILTON         N/A     43  32  65 SE7       29.65R
LIBBY            N/A     48  36  61 SW6       29.54R
PLAINS           N/A     48  31  52 SW12      29.65R
THOMPSON FALLS   N/A     46  38  74 W6        29.69R
$$

MTZ008-052>055-202200-
SOUTHWEST MONTANA

CITY           SKY/WX    TMP DP  RH WIND       PRES   REMARKS
BOZEMAN        PTSUNNY   51  33  50 W31G39    29.41R
DILLON         CLOUDY    43  25  49 W23G33    29.55R
W YELLOWSTONE  MIX PCPN  34  30  86 SW28G41   29.59S WCI  20
ENNIS          LGT RAIN  41  36  81 SW14      29.58R
THREE FORKS      N/A     47  27  46 W12       29.54R
TWIN BRIDGES     N/A     43  23  45 W3        29.60R
$$

MTZ009-010-012-014-046-048-049-054-202200-
EAST SLOPES AND CENTRAL MONTANA

CITY           SKY/WX    TMP DP  RH WIND       PRES   REMARKS
CUT BANK       CLOUDY    47  29  49 W29G39    29.36R
GREAT FALLS    CLOUDY    50  29  44 W24G39    29.37R
MALMSTROM AFB  CLOUDY    53  32  45 W22G36    29.38R
HELENA         CLOUDY    42  33  70 W24       29.50R
BOWMANS CRNR     N/A    N/A N/A N/A W20G26      N/A
CHOTEAU          N/A     50  25  37 W18G25    29.38R
FAIRFIELD        N/A    N/A N/A N/A W16         N/A
POWER            N/A    N/A N/A N/A W15         N/A
RAYNESFORD     PTSUNNY   54  30  40 W14       29.36R
$$

MTZ011-013-016-021-045-047-050-051-202200-
NORTH CENTRAL MONTANA

CITY           SKY/WX    TMP DP  RH WIND       PRES   REMARKS
HAVRE          CLOUDY    59  34  39 W15       29.27R
LEWISTOWN      PTSUNNY   65  31  28 SW18      29.28S
N BAR RANCH      N/A     66  28  24 W28G40    29.31R
CHINOOK          N/A     57  30  35 W13       29.24R
DENTON         PTSUNNY   55  28  35 NW23G29   29.25R
GEYSER         PTSUNNY   62  28  28 W21G28    29.28R
GRASS RANGE    PTSUNNY   70  29  21 W25G31    29.23R
JUDITH GAP       N/A    N/A N/A N/A SW30        N/A
WINIFRED       PTSUNNY   59  25  26 NW20      29.26R
$$

MTZ017>020-022>027-061-062-202200-
NORTHEAST MONTANA

CITY           SKY/WX    TMP DP  RH WIND       PRES   REMARKS
GLASGOW        CLOUDY    72  32  23 SE12      29.17F
JORDAN           N/A     74  23  15 SW12      29.19F
SIDNEY         SUNNY     79  34  19 SW6       29.21F
WOLF POINT     CLOUDY    82  26  13 VRB5      29.18F
MALTA          SUNNY     70  30  23 CALM      29.16F
PLENTYWOOD       N/A     73  32  21 CALM      29.20F
POPLAR           N/A     79  32  18 CALM      29.19F VSB 1
SCOBEY           N/A     74  31  20 SE7       29.24F
$$

MTZ028>42-056>058-202200-
SOUTHCENTRAL AND SOUTHEAST MONTANA

CITY           SKY/WX    TMP DP  RH WIND       PRES   REMARKS
BAKER          SUNNY     79  37  22 S17       29.25F
BILLINGS       MOSUNNY   71  32  23 W26G35    29.28R
LIVINGSTON     SUNNY     62  30  29 SW36G51   29.34R
MILES CITY     MOSUNNY   77  34  21 E5        29.20F
BIG TIMBER     MOSUNNY   64  27  24 SW28G39   29.35F
EKALAKA          N/A     78  32  18 S5        29.33F
FORSYTH          N/A     75  32  20 CALM      29.21S
HARLOWTON        N/A     65  33  29 MISG      29.30
LAUREL           N/A     70  34  26 SW23      29.30R
$$

REGIONAL REPORTS...DAKOTAS

CITY           SKY/WX    TMP DP  RH WIND       PRES   REMARKS
WILLISTON        N/A    N/A N/A N/A MISG      29.21F
MINOT          MOSUNNY   75  37  25 S12       29.23F
DICKINSON      SUNNY     80  33  18 S15       29.24F
BEACH            N/A     79  25  13 S10       29.27F
CROSBY           N/A     77  28  16 S10       29.20F
TIOGA            N/A     75  34  22 S6G12     29.25F
WATFORD CITY     N/A     81  27  13 S8        29.22S
BISMARCK       MOSUNNY   76  49  38 S21       29.29F
GRAND FORKS    PTSUNNY   78  53  41 S26G40    29.38F
FARGO          SUNNY     77  53  43 S26G41    29.44F
BUFFALO SD       N/A     83  34  17 SW23G38   29.21F
RAPID CITY     SUNNY     83  35  18 SW14G23   29.35F
$$

REGIONAL REPORTS...WYOMING/IDAHO/WASHINGTON

CITY           SKY/WX    TMP DP  RH WIND       PRES   REMARKS
GILLETTE       CLOUDY    74  33  22 SW20G36   29.36F
SHERIDAN       MOSUNNY   75  33  21 SW17      29.29F
BUFFALO WY     CLOUDY    74  26  16 SW16G24   29.38F
CODY           MOSUNNY   60  34  37 SW30G43   29.40S
YELLOWSTONE LA   N/A     34  28  79 SW9       29.66R WCI  27
IDAHO FALLS    PTSUNNY   44  30  57 SW39G53   29.66S
SALMON         CLOUDY    43  33  68 S5        29.68R
BOISE          CLOUDY    51  33  50 W15G28    29.84R
SPOKANE        PTSUNNY   50  37  61 W20       29.64R
$$

REGIONAL REPORTS...ALBERTA

CITY           SKY/WX    TMP DP  RH WIND       PRES   REMARKS
EDMONTON       SUNNY     50  36  57 N13G18    29.33R
CALGARY        CLOUDY    48  28  46 NW24      29.35R
LETHBRIDGE     CLOUDY    55  32  41 NW20      29.29R
MEDICINE HAT   PTSUNNY   59  37  44 W12       29.23S
$$

REGIONAL REPORTS...SASKATCHEWAN

CITY           SKY/WX    TMP DP  RH WIND       PRES   REMARKS
SWIFT CURRENT  MOSUNNY   70  30  23 VRB2      29.16F
REGINA         PTSUNNY   70  32  24 SE9       29.16F
SASKATOON      CLOUDY    54  36  50 NE12      29.20S
$$



USA.gov is the U.S. government's official web portal to all federal, state and local government web resources and services.